Tracking 23726 objects as of 25-Sep-2021
HD Live streaming from Space Station
objects crossing your sky now

IRIDIUM 42

Track IRIDIUM 42 now!
10-day predictions
IRIDIUM 42 is classified as:


NORAD ID: 25077
Int'l Code: 1997-077A
Perigee: 782.2 km
Apogee: 784.5 km
Inclination: 86.4 °
Period: 100.4 minutes
Semi major axis: 7154 km
RCS: 3.3675 m2 (large)
Launch date: December 8, 1997
Source: United States (US)
Launch site: Taiyaun Space Center, China (TSC)
aabbcc
Your satellite tracking list
Your tracking list is empty




NASA's NSSDC Master Catalog

Two Line Element Set (TLE):
1 25077U 97077A   21267.87733898  .00000123  00000-0  36564-4 0  9996
2 25077  86.3913  89.3187 0001632 100.0898 260.0482 14.34664385245936
Source of the keplerian elements: AFSPC